Location: Ceske Budejovice
(48.9830°N, 14.4670°E)
Time: 17:59:02
(UTC+02:00)

ISS - Pass Details

Date: 08 July 2022
Orbit: 412 x 419 km, 51.6° (Epoch: 09 August)

Event Time Altitude Azimuth Distance (km) Brightness Sun altitude
Exits shadow 02:33:58 13° 268° (W) 1,327 -1.5 -15.9°
Maximum altitude 02:36:52 61° 349° (NNW) 480 -3.3 -15.8°
Drops below altitude 10° 02:40:13 10° 71° (ENE) 1,501 -0.4 -15.6°
Sets 02:42:20 0° 75° (ENE) 2,368 0.6 -15.4°
